Theta_e
305 304 304 304 304 302 302 302 301 300 300 300 299 300 300 300 300 299 300 301 300 299 298 298 298 297 297 298 296 297 296 297 297 297 295 295 297 296 295 295 294 295 294 294 294 296 298 302 304 305 305 305 303 303 304 305 305 305 305 304 303 303 303 305 306 305 302 301 303 302 302 302 301 301 301 300 301 301 300 300 300 299 299 299 299
302 302 302 303 301 303 302 301 301 299 298 298 299 300 300 300 300 299 300 300 299 299 299 298 298 298 297 296 296 296 295 296 296 296 297 298 296 296 296 294 294 294 295 294 294 294 294 296 301 303 304 304 304 304 304 305 305 304 305 303 304 302 301 303 304 303 302 301 299 301 301 300 300 301 301 302 302 302 302 301 301 300 299 299 300
299 299 301 299 302 303 302 301 301 300 299 299 300 301 301 301 301 300 300 299 299 300 300 298 299 299 299 298 298 296 297 297 296 297 298 296 296 296 296 296 295 294 294 295 294 294 293 294 295 300 303 304 303 303 303 303 304 304 304 302 301 303 301 303 303 303 299 301 303 301 299 298 300 300 302 303 303 302 302 302 302 301 301 299 298
297 298 298 298 299 301 300 301 300 300 300 300 299 299 301 301 300 300 300 300 300 300 300 300 301 300 301 301 299 298 297 298 298 297 297 297 296 296 296 295 295 294 294 294 293 293 294 293 294 295 299 301 301 301 302 302 303 303 304 303 302 300 300 301 302 302 301 299 297 300 300 300 297 297 297 300 303 303 303 303 303 302 301 299 297
296 298 298 298 298 298 298 300 300 301 301 301 301 301 304 300 301 300 301 301 300 300 301 300 300 300 299 299 299 298 298 297 296 295 297 297 297 297 297 296 296 294 294 294 294 293 294 294 294 294 294 296 299 299 300 301 301 302 303 302 302 300 301 300 302 303 302 301 298 297 297 297 296 297 299 298 299 298 300 301 301 302 301 299 298
298 297 298 298 299 299 300 301 300 301 301 301 302 303 301 300 300 300 300 300 299 300 301 300 298 298 297 296 295 295 295 296 295 295 296 296 296 297 297 297 296 295 294 295 294 295 293 294 294 293 293 293 296 295 297 298 299 300 301 301 301 302 300 301 299 301 301 302 302 300 298 296 294 296 297 294 297 299 299 301 301 301 301 300 299
298 298 298 298 298 298 299 299 299 300 301 303 304 303 301 300 299 299 299 299 301 300 301 300 299 298 297 297 296 296 295 296 296 297 297 296 297 297 296 297 297 295 294 294 294 294 293 293 294 294 293 293 294 293 294 295 296 299 299 300 300 301 301 298 300 300 300 301 302 301 301 301 299 296 295 295 294 296 297 298 299 300 300 300 300
298 298 298 298 298 298 298 298 299 299 300 302 302 302 301 300 299 300 299 300 299 301 301 302 299 298 297 297 298 297 297 297 297 297 297 297 297 296 296 296 297 296 295 294 294 294 293 293 293 293 293 292 293 291 292 294 295 296 298 298 298 299 298 298 297 299 298 298 300 299 299 300 299 299 298 297 293 291 293 296 297 298 298 299 300
298 298 298 298 299 299 299 299 300 300 301 300 300 301 302 302 301 299 299 299 299 299 300 300 301 299 298 297 297 299 299 299 298 297 296 296 296 296 296 296 296 296 296 295 294 294 295 293 293 293 292 292 293 293 291 293 293 293 293 294 295 295 296 297 296 295 297 297 298 297 298 297 298 298 298 297 294 291 292 292 294 296 296 297 298
298 298 298 298 298 299 299 299 300 299 300 302 301 302 301 300 300 300 299 299 299 299 300 299 299 300 298 296 296 297 298 297 297 297 296 296 296 296 296 297 297 296 296 295 294 295 294 293 293 293 292 293 294 291 291 293 293 292 292 293 293 293 294 293 294 296 296 297 298 297 296 295 296 295 295 295 294 295 291 289 290 292 292 294 297
298 298 298 298 298 299 299 298 298 298 299 302 301 301 300 301 300 300 300 300 299 300 299 299 299 299 298 297 297 297 297 297 297 297 296 296 296 296 296 297 297 297 296 296 295 295 294 294 293 293 293 294 294 291 291 291 291 291 292 292 292 291 291 291 292 293 295 295 295 295 295 295 294 294 294 295 295 292 291 293 294 295 295 294 294
297 297 298 299 299 298 298 298 298 299 299 301 301 302 302 302 301 300 300 300 299 300 300 300 299 299 298 298 297 298 297 298 298 297 297 296 296 296 297 297 296 297 296 295 295 295 295 294 294 293 294 293 292 292 292 292 292 292 291 291 291 290 290 292 290 290 291 293 293 294 295 296 296 294 294 293 294 293 293 292 291 290 291 292 294
298 298 298 298 297 297 298 298 298 299 300 300 302 302 302 302 301 300 299 299 300 299 299 300 299 299 299 299 298 299 298 298 298 297 297 297 296 296 296 296 296 296 295 296 295 295 296 295 294 293 293 294 293 292 292 292 292 291 290 290 290 290 290 291 289 289 289 290 291 292 294 295 294 295 295 294 293 293 292 289 289 290 289 289 290
298 298 297 297 297 298 299 299 299 298 299 300 301 301 301 302 300 299 300 299 299 299 300 300 300 300 299 299 299 299 298 298 298 298 298 298 298 296 296 296 296 296 296 296 297 296 296 296 295 294 293 293 294 293 293 292 292 291 290 290 290 290 290 290 290 289 290 290 291 290 289 291 292 294 292 293 293 292 291 290 290 288 287 288 287
295 296 297 297 298 298 299 299 299 299 300 301 300 300 300 299 299 299 299 299 299 299 299 300 300 300 299 300 299 299 298 298 298 299 298 298 297 297 297 296 296 297 296 297 297 297 296 296 295 294 294 294 294 293 295 294 293 293 292 291 291 291 291 291 290 289 291 289 289 290 290 289 288 289 289 292 293 293 293 291 289 287 284 283 285
298 299 299 299 299 300 300 299 300 299 299 299 300 300 300 300 299 299 299 299 299 299 299 300 300 300 299 299 299 299 299 299 298 298 298 298 298 298 298 297 297 296 297 297 297 297 297 297 296 295 295 295 295 294 293 293 293 292 292 291 291 293 291 290 290 290 290 290 289 289 289 289 289 289 290 289 289 292 291 290 288 286 284 283 283
301 301 300 299 298 298 298 299 299 299 299 299 300 299 300 299 299 299 299 298 299 299 299 298 299 298 299 299 299 299 299 298 298 297 297 298 298 298 298 298 298 298 298 297 297 297 298 297 297 296 296 295 295 295 294 293 293 293 292 291 291 291 291 291 291 290 290 290 290 290 290 290 289 289 289 290 290 290 290 288 288 288 287 284 281
299 299 299 299 299 298 299 299 299 299 298 298 298 298 298 298 297 298 297 297 298 298 299 299 299 298 298 299 299 299 299 299 298 298 297 297 297 298 298 297 297 298 298 299 297 297 297 297 297 296 296 296 295 295 294 294 293 293 292 292 292 291 291 291 291 291 291 290 290 290 290 290 290 289 289 289 289 289 288 288 288 288 288 286 284
297 297 297 297 297 298 297 297 297 297 297 297 298 298 298 297 297 297 298 298 298 298 298 299 298 299 301 300 299 299 299 299 299 299 298 297 297 297 298 298 298 297 297 297 297 297 297 296 296 296 296 296 296 295 295 294 293 293 293 292 292 292 291 291 291 291 292 291 290 290 290 290 290 289 289 288 289 289 289 288 288 288 288 287 286
297 297 297 297 297 297 297 297 297 297 297 297 297 297 297 297 297 297 297 297 297 297 297 297 297 298 299 298 299 299 299 299 299 298 298 298 298 298 298 298 298 298 297 297 297 297 297 296 296 296 295 295 295 295 295 294 294 293 293 292 292 292 292 291 291 292 293 292 291 290 290 290 290 289 289 289 289 289 289 288 288 288 287 287 287
297 297 296 296 296 296 296 296 297 297 296 296 297 297 297 297 297 297 297 297 297 297 297 298 298 298 297 298 298 298 298 299 298 299 298 298 298 297 298 298 296 297 298 297 297 297 297 296 296 296 295 295 295 295 295 294 294 293 293 293 292 292 291 292 291 291 292 292 291 291 291 291 291 290 290 290 289 289 289 289 288 287 287 287 287
297 297 296 296 296 296 296 296 296 296 296 296 297 297 296 296 297 297 297 297 297 298 298 298 298 299 298 298 298 298 299 298 298 298 298 298 298 298 298 296 296 297 297 297 297 297 297 297 296 296 296 296 295 295 295 294 294 293 293 294 293 292 292 292 291 291 291 292 292 291 291 291 291 290 290 290 290 289 289 288 288 288 288 287 288
297 296 296 296 296 296 297 296 296 296 296 296 296 297 297 296 297 296 296 297 297 298 298 298 298 298 298 298 298 298 298 297 297 298 297 298 297 297 296 296 297 297 296 297 297 297 297 296 296 296 296 296 296 295 295 295 294 294 293 293 293 293 292 292 291 291 292 292 291 291 291 291 292 290 290 291 290 290 289 289 289 289 288 288 288
296 296 296 296 296 296 296 296 297 296 296 296 296 296 296 296 296 296 296 297 297 297 297 297 297 297 297 297 297 297 297 297 297 297 297 297 297 297 296 297 297 297 297 297 296 297 296 296 296 296 296 296 296 295 295 295 295 294 294 294 293 293 293 293 292 292 292 292 291 291 291 292 291 290 290 290 291 290 290 289 289 289 289 288 288
295 295 296 296 295 296 297 296 296 297 296 296 297 297 296 297 296 296 296 296 297 296 296 296 295 296 296 296 296 296 296 296 296 297 297 297 297 297 297 297 297 297 297 297 296 296 296 296 296 296 296 296 296 296 295 295 295 295 295 294 294 293 293 293 293 293 293 292 292 292 292 292 291 291 291 290 291 290 290 290 289 289 289 289 289
295 294 295 295 295 296 296 296 296 297 296 297 297 297 297 296 296 296 296 296 297 295 295 295 295 295 295 295 295 295 295 296 296 296 296 297 297 297 297 297 296 297 297 296 296 296 296 296 296 296 296 296 296 295 295 295 295 295 295 294 294 294 294 293 293 293 293 293 293 293 293 292 292 291 291 291 291 290 290 290 289 289 289 289 289
294 294 294 295 295 296 296 296 296 296 296 296 296 297 296 296 296 296 296 296 297 295 295 294 295 293 294 294 294 295 295 295 296 296 296 296 296 296 296 296 296 296 296 296 295 296 296 296 297 297 296 296 296 295 295 295 295 295 294 294 294 294 294 294 294 294 294 293 293 293 293 293 292 292 292 292 291 291 291 290 290 290 290 289 288
295 295 296 296 297 296 295 295 295 296 296 296 296 297 296 296 296 296 296 296 298 295 294 294 293 293 293 294 294 294 295 295 296 296 296 296 296 295 295 295 294 295 295 295 295 296 296 296 296 296 296 296 295 295 295 295 295 295 294 294 294 294 293 293 293 293 293 293 294 294 293 294 293 293 293 293 292 292 291 291 291 290 290 289 288
294 295 296 296 294 294 294 295 295 294 294 294 295 295 295 295 294 294 294 294 294 293 293 293 292 292 293 293 294 294 295 295 294 295 294 294 294 294 294 294 293 294 295 295 295 295 295 295 295 295 295 295 295 296 296 296 295 295 294 294 294 294 293 293 293 293 293 293 293 293 293 294 294 293 292 293 293 293 293 291 291 291 290 289 289
294 295 295 295 294 294 293 293 294 294 294 294 294 294 294 294 294 294 294 294 293 292 292 292 292 292 293 293 294 293 294 293 293 293 293 293 293 293 293 292 293 293 293 294 294 294 294 294 294 294 294 295 295 296 294 294 294 295 294 295 294 294 293 293 293 292 293 293 293 293 294 292 291 291 291 291 292 292 292 293 293 292 291 290 289
294 294 294 294 293 293 293 292 292 292 292 293 293 294 294 293 293 294 294 293 292 292 292 291 292 292 292 292 292 293 293 292 293 292 292 292 293 292 292 291 292 292 292 292 292 292 292 292 292 293 293 294 295 295 294 295 295 295 294 294 293 293 293 293 293 292 292 292 293 293 293 292 291 291 291 291 292 292 292 292 292 293 292 292 290
293 293 293 293 292 292 292 291 291 292 292 292 292 293 292 293 293 293 293 292 291 291 292 292 292 292 292 292 292 292 292 292 292 292 292 292 291 291 291 291 291 291 292 291 290 291 291 291 292 292 292 293 294 293 294 295 295 295 294 294 293 293 293 292 292 292 292 292 292 293 293 294 293 293 293 292 291 291 292 292 292 292 292 292 293
294 293 292 292 292 291 291 291 291 292 292 292 292 291 292 292 292 292 291 291 291 291 291 291 291 291 292 292 292 292 292 292 292 292 292 291 291 291 291 291 291 291 290 290 291 291 291 291 291 291 291 292 292 293 294 294 294 294 295 294 293 293 292 292 292 292 292 292 292 292 292 293 294 291 291 292 292 292 291 291 291 291 291 292 293
292 291 291 292 292 292 292 292 291 291 291 291 291 291 291 291 291 290 290 291 291 291 291 291 291 291 291 291 291 291 291 291 291 291 291 291 291 290 291 291 290 290 290 290 290 290 290 290 290 290 291 291 291 292 293 294 294 294 294 294 293 292 292 292 291 291 292 291 291 291 291 291 292 293 293 292 292 292 292 291 290 290 290 290 291
291 291 291 292 292 291 291 290 290 291 290 290 290 290 290 290 290 290 290 290 290 290 290 290 291 291 291 291 291 291 291 291 291 290 290 290 290 290 290 291 290 290 290 290 290 290 290 290 290 290 290 291 292 292 293 293 293 294 294 293 292 292 291 291 291 291 291 291 291 291 291 291 291 292 293 292 292 292 291 291 290 289 289 289 290
292 292 292 291 291 291 290 290 291 290 289 289 290 290 289 289 289 289 289 289 289 289 290 290 290 290 290 291 290 290 290 290 290 290 289 289 290 290 289 290 289 290 290 290 290 289 289 290 290 290 290 290 291 292 292 292 293 293 294 292 291 290 290 290 290 290 291 291 291 291 291 291 291 291 291 292 292 292 292 290 290 290 289 289 289
292 292 291 292 291 291 291 290 289 290 289 290 290 290 289 289 288 289 289 289 289 289 289 289 289 289 290 290 290 289 289 289 289 289 288 289 289 289 289 289 288 289 289 289 289 289 290 290 289 289 289 289 290 291 291 292 292 293 292 291 290 290 289 289 289 290 290 290 290 290 291 291 291 291 291 292 293 292 291 291 290 290 290 290 290
291 291 290 289 290 290 290 290 288 288 289 289 289 289 288 287 288 289 288 289 288 288 288 288 288 288 289 289 289 289 288 288 288 288 288 289 289 289 289 289 288 288 288 289 289 289 289 289 288 288 288 288 289 289 290 291 291 292 291 290 290 289 288 288 288 289 289 289 290 289 289 290 290 290 291 292 293 291 291 291 290 289 289 289 290
290 290 289 289 289 289 288 288 288 288 289 289 289 288 287 288 288 288 288 287 286 286 287 287 287 287 288 288 288 288 288 288 287 288 288 288 288 288 288 289 288 288 288 289 288 288 288 289 289 288 287 288 288 288 290 291 291 292 291 290 289 288 287 287 287 288 288 288 288 288 288 288 289 290 291 292 292 291 290 290 290 289 289 289 290
289 289 289 288 288 288 288 288 288 288 289 289 288 287 287 287 287 287 285 285 285 285 286 286 286 286 286 286 287 287 287 287 287 288 288 288 288 288 288 288 288 288 288 288 288 288 288 288 288 288 289 289 288 289 289 290 291 291 292 290 289 288 287 287 287 287 287 288 288 288 289 290 291 292 292 292 292 292 291 291 290 289 288 288 291
287 287 288 288 288 288 288 288 288 289 289 288 288 287 287 286 285 283 282 283 282 283 283 283 283 283 284 285 286 286 286 287 288 287 287 287 287 287 287 287 287 287 287 287 287 287 287 287 288 288 288 288 289 288 289 290 291 291 292 291 289 288 288 287 287 287 287 287 287 288 288 289 291 291 291 292 292 292 292 291 291 290 290 291 291
287 287 287 287 288 287 287 287 288 288 288 288 287 284 283 282 281 279 280 281 281 281 281 281 281 282 283 284 284 286 286 287 287 286 286 286 286 286 286 286 286 286 286 285 286 286 286 286 287 287 287 288 288 287 288 289 290 291 291 291 289 289 289 288 288 288 288 287 288 288 288 289 290 290 290 291 292 292 292 291 290 291 292 292 290
285 285 286 286 286 285 285 286 287 287 288 288 284 281 280 280 279 278 279 280 279 279 279 279 280 281 282 283 283 284 285 286 286 285 285 284 283 283 283 284 284 283 283 283 284 284 284 285 285 286 286 287 287 287 287 288 288 290 290 291 291 290 291 289 288 287 288 288 288 288 288 288 289 289 290 291 291 291 290 290 291 292 291 291 290
283 283 284 284 284 284 284 285 287 288 288 286 281 280 279 278 278 279 279 279 278 279 279 278 279 279 281 281 281 282 283 284 284 284 284 282 280 281 281 281 281 281 281 281 281 282 283 283 283 284 284 284 285 286 286 286 287 288 290 290 291 291 291 289 289 288 288 288 288 288 288 289 289 289 290 290 290 290 289 290 291 291 290 289 289
280 280 281 281 282 282 284 285 287 287 287 285 281 279 279 278 278 279 278 278 278 278 278 277 277 278 279 279 279 280 280 281 282 283 282 280 279 279 279 279 279 279 279 279 280 281 282 282 281 281 280 281 283 284 285 285 286 286 288 289 290 290 290 290 288 287 288 288 288 289 289 289 288 289 289 289 289 288 289 289 289 289 288 288 288
279 278 278 279 279 280 281 282 284 286 285 285 282 280 279 278 279 279 278 278 277 277 276 276 276 277 278 278 277 278 278 279 280 281 281 280 279 278 278 278 278 278 278 278 279 280 280 279 278 278 278 280 281 282 282 283 285 285 286 287 288 287 286 286 286 287 287 288 288 288 288 288 287 287 287 287 287 287 287 287 287 287 287 287 287
278 279 278 277 277 277 277 278 280 284 282 282 283 282 280 279 279 278 278 277 277 276 275 275 275 276 276 276 276 276 277 277 278 279 279 279 279 278 277 277 277 277 276 277 277 278 277 277 277 277 278 278 278 280 281 282 284 284 284 284 284 284 285 286 286 286 286 286 287 286 287 287 287 286 286 286 286 287 287 287 287 287 287 287 287
279 279 279 278 277 276 276 276 277 279 279 280 280 280 281 280 279 278 278 276 275 275 274 274 274 275 274 275 275 276 276 275 276 277 277 277 278 277 276 276 275 275 274 274 275 276 275 275 276 276 277 277 278 279 280 281 281 281 281 281 282 284 284 283 282 283 284 285 285 285 286 286 286 286 286 286 286 287 287 287 287 287 287 287 287
275 276 277 276 276 277 277 277 276 277 277 277 277 278 279 280 278 277 277 275 274 274 274 273 273 273 273 274 274 274 274 274 274 274 275 276 276 276 276 276 276 276 276 275 274 275 276 276 276 276 276 276 277 277 278 281 281 282 281 281 280 278 278 278 280 284 283 283 284 283 283 284 284 284 285 285 285 286 286 287 287 287 287 287 287
275 275 275 275 275 276 277 277 277 277 276 276 276 276 276 278 277 276 275 273 273 273 272 271 272 271 272 272 272 272 272 273 272 272 273 273 277 278 277 275 274 276 277 278 277 275 275 276 276 276 278 276 275 276 279 279 279 281 281 281 280 281 281 280 282 283 282 280 278 279 279 281 282 283 284 284 285 285 286 286 286 286 287 287 286
275 273 273 273 273 275 276 275 274 275 275 276 276 276 275 277 276 275 274 273 272 271 271 270 270 270 270 271 271 270 271 271 271 271 271 271 271 273 275 276 276 275 276 276 277 277 278 279 277 274 275 277 278 278 278 278 279 279 279 279 278 279 280 280 281 279 277 276 276 277 279 281 282 283 283 284 285 285 285 285 286 286 286 286 286
Wind_Speed
2 1 0 1 1 1 2 1 1 1 3 3 3 4 4 4 3 4 4 4 3 2 2 2 2 4 3 2 2 2 3 2 3 3 3 2 0 1 3 5 3 4 3 4 4 5 6 6 6 7 7 5 3 2 1 1 1 1 2 3 3 4 3 2 1 2 1 1 1 2 1 1 0 1 1 1 2 2 2 2 2 2 2 1 0
1 2 4 4 3 4 3 2 2 2 4 4 5 5 4 4 4 4 3 3 4 2 2 2 1 1 1 3 2 3 4 3 3 3 1 1 1 2 3 3 3 4 2 3 3 3 5 6 6 5 6 7 6 4 4 4 4 4 3 1 1 4 2 1 2 2 0 1 1 0 1 1 2 3 3 3 3 3 4 4 4 3 2 1 0
1 2 2 4 5 5 5 4 4 5 5 4 3 3 3 3 3 4 4 4 3 3 2 3 1 2 1 2 1 3 3 4 4 4 1 1 2 3 3 3 3 3 2 2 3 2 3 4 6 6 5 6 7 6 5 6 6 6 6 4 3 1 2 1 2 4 1 2 2 2 1 0 1 2 3 3 3 3 4 4 4 4 4 3 3
3 2 1 0 4 5 5 5 5 5 4 4 4 5 4 4 4 4 4 3 3 2 2 2 2 2 2 1 4 3 6 4 5 4 4 3 4 3 3 4 3 2 3 2 3 3 2 2 3 5 5 5 6 6 5 5 6 6 6 7 4 3 3 0 1 2 2 2 2 0 2 2 2 1 3 3 6 5 6 5 4 5 5 4 4
2 2 2 1 1 2 4 5 4 4 4 5 5 4 3 4 3 2 2 2 2 2 2 2 1 1 3 4 4 4 4 4 4 5 4 4 3 3 5 4 3 3 2 2 2 3 2 2 2 2 3 4 4 5 4 4 4 5 6 6 7 2 6 2 1 1 2 1 4 1 1 1 1 1 1 2 3 3 4 4 4 4 4 5 5
2 3 2 1 1 1 1 0 2 4 4 6 5 4 3 3 4 3 3 3 3 3 3 2 2 3 2 3 3 3 4 2 3 2 2 4 5 4 4 5 4 3 3 2 1 2 3 1 1 2 3 3 3 3 4 4 4 4 5 4 5 6 3 5 3 2 1 1 1 1 2 2 2 3 1 2 1 5 4 5 5 5 5 5 6
4 3 2 2 3 2 3 4 4 4 4 3 3 3 3 4 4 4 4 4 4 4 3 3 3 3 4 5 5 5 5 5 3 2 2 2 1 1 3 4 5 4 4 4 3 2 3 3 2 2 3 4 2 2 3 1 2 1 2 4 4 5 5 3 6 3 2 1 1 1 1 1 1 1 2 1 2 1 2 5 5 5 6 5 5
4 4 4 4 4 4 3 3 1 2 2 2 3 4 4 5 5 5 4 5 4 4 4 5 5 5 5 5 5 5 5 7 5 5 4 2 2 4 3 4 4 5 4 4 4 4 3 4 3 2 3 4 2 3 2 0 2 2 0 1 3 4 4 3 4 5 2 2 2 2 2 2 2 2 1 3 2 1 3 3 3 5 4 5 6
4 4 4 3 3 3 3 2 3 2 2 3 4 5 5 5 4 4 5 4 4 5 4 5 5 6 6 4 4 5 5 6 5 4 4 4 4 4 4 4 4 5 5 5 5 5 4 4 4 4 4 4 3 4 3 0 1 1 1 2 1 2 2 2 2 5 4 2 1 2 2 3 3 4 3 1 3 2 6 4 4 1 2 4 6
2 2 2 2 2 2 2 2 2 4 4 4 4 4 4 4 4 5 6 5 5 5 5 5 5 5 5 5 5 6 4 4 3 4 4 3 4 4 4 5 5 5 6 5 5 5 5 5 4 4 4 4 4 4 4 1 1 2 4 4 2 1 2 3 4 4 3 4 3 1 1 2 2 3 3 4 4 4 7 4 2 3 4 5 5
4 4 4 4 3 3 2 4 5 5 4 4 4 4 4 5 5 5 7 6 5 6 6 6 5 5 6 5 6 6 6 5 4 5 4 3 4 5 5 6 6 6 6 6 6 5 5 5 5 5 5 4 4 4 5 4 4 4 4 4 4 4 4 4 3 3 2 4 5 5 4 4 4 3 4 4 4 4 3 6 6 5 6 7 4
3 4 3 3 3 4 4 5 5 6 5 5 5 4 5 5 4 5 6 5 5 6 6 6 6 6 6 6 7 7 6 5 6 6 6 5 5 5 5 4 4 5 4 6 6 6 6 6 5 5 5 5 6 6 5 5 5 5 4 5 5 5 5 5 4 4 4 4 4 4 5 5 5 4 4 2 3 4 3 5 5 3 4 3 3
1 1 2 3 4 5 5 5 5 5 5 5 5 5 5 5 5 5 7 5 6 6 7 7 6 6 7 7 7 7 6 6 6 7 6 6 6 5 5 6 5 4 5 6 6 7 7 6 6 7 7 7 6 5 5 5 5 5 5 5 5 5 6 6 6 6 6 6 6 5 6 6 6 5 3 4 4 3 3 4 4 2 6 5 3
3 3 4 4 5 5 5 6 6 6 5 4 4 4 4 4 5 5 8 5 5 5 6 6 7 7 7 7 7 7 7 7 7 7 7 7 7 7 6 7 7 7 6 6 7 7 7 8 7 8 7 7 7 7 7 6 6 7 5 6 6 7 5 5 6 6 6 6 5 5 5 6 6 5 4 3 4 3 5 5 4 3 3 7 3
4 4 5 5 5 5 5 5 5 5 5 4 4 4 3 5 4 5 6 6 5 6 5 6 7 6 7 7 7 6 7 7 7 7 7 7 7 7 7 6 7 7 7 7 5 5 8 7 7 7 7 7 7 7 7 7 6 6 6 7 7 6 7 7 7 6 7 7 6 6 7 7 6 5 4 6 5 5 5 4 3 7 6 4 6
2 1 2 3 4 4 4 5 5 5 5 5 5 4 4 5 5 5 6 6 5 5 5 6 7 6 6 7 8 7 7 6 7 7 7 7 7 7 8 7 7 7 7 6 6 6 7 8 7 8 7 7 7 7 7 7 7 7 7 7 8 5 7 8 8 7 8 8 8 7 6 8 7 6 6 7 6 6 6 5 4 5 6 9 3
1 1 3 4 4 5 5 5 5 5 5 5 5 5 5 5 5 5 5 5 5 6 6 6 6 5 6 7 6 6 7 7 8 8 8 7 7 7 7 7 6 6 6 5 6 5 6 7 7 8 8 8 7 7 8 7 7 7 8 8 9 7 8 9 8 8 9 8 8 8 9 8 8 7 6 6 7 6 7 7 7 8 7 7 6
2 3 3 3 4 5 5 4 5 5 5 5 5 5 4 5 5 6 6 7 6 6 6 5 6 6 6 6 7 7 7 8 8 8 7 6 6 6 6 6 7 7 6 5 5 6 6 6 7 7 8 7 9 8 8 8 8 8 8 9 9 7 8 8 8 9 9 8 8 8 8 8 8 7 8 8 7 8 7 7 7 7 7 9 7
4 4 4 4 5 5 5 5 5 5 5 5 5 5 5 5 5 5 7 7 7 6 5 6 5 5 5 6 6 6 6 7 7 7 6 6 7 7 7 8 7 6 7 7 6 6 6 6 6 7 7 8 8 8 8 8 8 9 8 9 8 8 8 9 9 8 9 8 9 10 9 10 8 9 8 8 8 8 8 7 7 7 7 8 8
3 4 4 4 4 5 5 5 6 6 5 5 5 5 5 5 5 5 6 6 6 6 6 7 6 6 7 5 5 5 6 7 7 7 7 8 8 7 7 6 9 6 7 7 7 7 7 8 7 8 8 8 8 8 8 8 8 9 9 8 9 8 10 11 10 8 7 8 10 11 11 10 8 7 8 8 9 8 8 8 8 8 8 8 8
3 3 4 4 4 5 5 5 5 5 5 5 4 4 5 5 5 5 6 7 6 6 6 6 6 6 6 7 7 6 7 7 6 7 8 9 8 8 8 8 5 7 7 7 7 8 8 8 8 8 9 9 8 9 8 8 8 10 9 10 9 9 10 10 9 10 9 9 10 11 11 11 8 9 9 9 9 10 8 8 8 8 9 8 9
3 3 3 4 4 5 5 5 4 4 4 5 4 3 4 5 5 5 5 5 6 6 5 6 5 5 6 7 6 6 7 6 7 8 8 9 8 8 8 5 7 9 6 8 8 8 7 8 8 9 9 9 9 10 9 8 9 10 10 8 9 10 11 11 9 11 10 10 10 11 12 11 9 11 10 10 10 9 9 9 9 9 10 10 10
3 4 4 4 4 4 4 5 5 5 4 4 4 4 4 4 5 5 4 6 5 6 5 5 5 5 6 6 6 6 6 6 7 7 7 8 8 7 5 6 8 8 6 7 8 8 8 7 8 9 9 9 9 9 9 9 10 11 11 10 9 10 11 12 11 12 11 10 10 11 13 11 8 10 12 11 10 11 10 11 12 10 12 11 10
2 3 3 4 4 4 4 4 4 5 5 5 5 5 4 4 4 5 5 5 5 5 5 5 5 6 6 6 7 7 7 7 7 7 7 7 7 7 6 7 8 7 8 7 7 8 7 8 8 9 9 9 9 9 9 9 11 11 11 12 11 11 11 12 12 12 11 10 12 12 13 11 10 11 12 11 11 10 11 11 12 11 11 12 11
4 4 4 4 4 4 4 4 4 4 4 5 5 5 5 5 5 5 5 5 5 5 5 5 5 6 7 7 7 7 7 7 7 7 8 8 7 7 6 7 7 7 7 7 7 6 7 8 9 10 10 9 10 10 10 11 10 10 11 12 11 11 11 12 12 13 12 12 12 13 13 11 10 12 12 12 11 13 12 11 12 12 11 11 9
4 4 4 4 4 4 4 4 4 5 4 5 5 5 5 5 5 4 5 5 6 4 4 5 5 6 7 8 7 7 7 7 7 7 7 7 7 6 7 6 5 7 7 6 7 7 7 9 9 10 9 10 9 10 11 11 11 11 11 11 11 11 11 12 12 12 12 12 13 14 14 12 12 13 14 13 12 14 12 12 14 13 12 10 11
4 4 4 4 4 4 4 4 4 4 5 5 5 6 5 5 6 6 5 5 6 5 5 5 6 6 7 7 7 7 7 7 7 7 7 6 6 6 6 7 6 6 6 7 7 7 7 8 9 9 9 10 10 10 11 11 11 11 11 11 12 11 12 11 11 12 12 12 13 13 14 13 14 14 14 14 13 13 12 14 15 14 12 11 12
2 3 2 2 2 3 5 5 5 5 6 7 6 7 6 6 7 7 6 6 5 6 6 7 7 7 6 7 7 6 6 7 6 6 6 7 7 7 7 6 5 6 7 7 8 8 8 7 8 8 9 8 9 10 11 11 11 11 11 11 11 11 12 12 12 12 12 13 13 14 14 14 15 15 15 14 14 13 12 13 14 12 12 13 13
3 3 1 2 4 4 5 5 5 6 6 6 6 6 6 7 6 5 5 6 6 6 7 7 7 7 7 7 7 6 6 6 6 6 7 7 7 6 6 6 6 7 7 7 7 8 8 9 8 8 8 8 9 10 10 10 10 10 10 11 11 12 12 12 12 12 13 13 13 13 14 14 16 18 21 19 17 16 12 14 14 12 13 13 13
3 2 2 2 4 5 5 6 7 7 8 7 6 7 7 8 7 6 7 6 7 7 7 8 7 7 7 7 8 7 7 7 7 7 7 7 7 7 7 6 7 7 7 7 7 8 8 8 9 9 8 8 9 9 13 17 14 10 9 9 9 10 11 11 12 13 13 13 14 13 14 19 21 21 22 23 23 23 23 19 15 12 14 13 14
2 2 2 3 5 5 6 5 5 5 5 5 5 6 6 6 6 7 7 7 6 7 7 7 8 7 7 7 7 7 8 8 7 7 7 7 8 8 7 7 8 7 8 8 8 8 8 8 8 8 9 9 9 10 16 16 16 17 13 11 11 11 10 11 11 13 13 14 13 14 13 15 17 19 20 24 24 25 26 26 27 23 18 16 14
3 3 3 5 5 5 5 4 5 5 5 5 5 5 5 6 7 7 7 7 7 7 7 8 8 8 8 8 8 8 8 9 8 9 9 8 8 8 8 8 8 9 9 7 8 8 8 8 8 7 8 9 10 13 17 17 17 17 15 12 10 10 11 11 12 13 13 13 14 14 12 10 11 14 15 16 20 24 26 26 27 26 25 24 22
2 3 5 5 4 4 4 5 5 5 6 5 5 5 6 6 7 7 7 7 7 7 7 7 7 7 8 8 8 9 9 10 10 10 10 9 9 9 9 9 10 9 8 8 9 9 9 8 8 8 9 10 10 14 17 17 17 17 17 15 10 10 11 12 13 14 14 14 13 13 13 11 11 17 16 15 15 16 20 25 26 26 26 27 27
3 4 4 3 3 3 3 4 4 5 5 5 5 5 5 6 7 7 7 7 7 8 7 7 7 8 8 8 9 10 10 10 10 10 10 11 11 11 10 9 8 9 8 9 8 9 9 8 8 8 9 9 10 13 16 17 17 17 17 15 11 12 12 13 14 14 13 14 14 13 13 13 12 13 13 13 14 15 14 14 16 17 18 22 26
4 4 3 2 2 3 4 4 5 5 5 5 5 5 6 7 7 7 7 8 7 7 8 8 10 10 10 11 11 11 11 11 11 11 11 11 11 11 11 10 10 10 10 11 11 11 11 10 10 9 9 10 10 15 17 18 17 17 18 15 11 11 11 12 12 13 14 14 14 13 14 16 15 13 13 13 14 14 13 14 15 15 16 17 18
2 3 2 4 4 5 5 4 4 5 5 5 6 6 7 6 6 6 7 8 8 9 10 11 12 12 13 13 12 12 12 12 12 11 11 12 12 12 12 11 10 10 9 9 9 8 11 11 11 10 10 11 10 15 17 17 18 17 18 11 10 11 11 11 12 12 13 12 12 13 14 16 16 15 17 19 19 14 13 16 16 16 15 15 17
4 4 4 5 5 5 5 5 6 5 6 7 6 7 6 6 7 8 8 8 10 12 13 13 13 14 14 13 13 13 13 12 12 12 13 13 13 13 12 10 11 10 10 11 10 10 9 10 11 10 11 12 11 13 17 18 18 20 16 11 10 10 10 11 12 12 11 11 11 12 13 14 15 16 17 18 20 17 15 18 17 17 16 15 17
5 5 6 6 6 7 7 7 6 7 8 7 6 7 7 7 8 8 10 11 12 13 13 13 12 13 13 13 13 13 13 13 12 13 13 12 12 11 12 11 11 12 12 12 12 11 10 9 11 11 10 12 12 13 17 18 18 18 16 12 11 10 12 11 12 12 10 11 12 17 17 15 16 17 17 18 19 16 15 18 16 17 18 19 19
8 9 9 10 9 8 7 8 9 10 9 8 8 8 8 9 8 10 11 12 12 12 13 13 13 12 12 12 11 11 12 12 12 12 11 12 12 12 11 11 11 11 12 11 11 11 12 11 10 11 13 13 12 12 14 16 17 17 15 10 10 9 11 12 11 12 10 9 11 11 16 17 16 18 22 20 21 18 16 17 16 15 19 21 20
12 13 10 8 7 8 10 11 11 10 9 9 8 7 9 10 11 11 12 13 14 14 13 12 12 12 12 12 11 11 11 11 12 11 11 11 11 11 11 12 12 10 11 11 11 11 12 11 10 11 11 11 12 12 11 16 17 18 18 13 10 10 12 13 12 11 12 11 9 10 12 15 19 21 21 21 21 22 18 17 16 16 18 23 17
13 12 11 9 9 10 11 11 9 9 8 8 8 9 11 11 11 13 14 13 13 13 13 12 12 12 12 12 11 11 12 11 10 11 11 10 10 10 11 11 12 11 11 11 12 12 12 11 10 10 10 11 10 13 14 16 17 18 19 16 11 12 12 12 14 14 11 12 12 10 9 12 17 19 20 20 20 20 20 17 17 17 18 19 17
11 13 12 9 9 10 11 10 9 10 10 9 9 11 12 12 12 14 13 12 12 12 12 11 12 12 11 11 12 12 10 10 10 11 11 10 10 11 11 12 11 11 12 13 13 12 12 12 10 10 10 11 11 14 13 15 17 18 19 20 13 12 13 13 15 15 14 12 12 12 11 13 17 20 21 21 22 21 22 16 17 22 25 26 21
14 14 13 11 9 10 10 9 8 8 8 8 10 11 11 11 13 13 11 12 12 11 11 11 11 12 11 12 12 13 12 10 11 12 11 11 11 12 13 12 13 14 14 15 14 13 13 13 13 10 9 11 12 12 15 15 18 20 22 22 23 18 19 15 13 16 16 15 12 13 14 18 19 20 22 23 23 24 21 18 23 25 25 26 22
12 12 11 11 10 9 10 9 8 9 9 9 10 11 10 11 12 10 10 11 11 11 11 12 11 11 11 11 12 13 12 11 12 12 10 11 13 13 12 11 13 14 14 15 13 13 13 13 14 13 11 10 12 13 14 18 18 21 22 23 23 23 22 15 14 14 15 16 15 15 17 25 27 27 26 25 25 24 19 23 25 26 26 23 16
14 13 12 11 11 10 10 10 10 11 11 9 9 10 11 11 9 10 11 11 12 11 11 12 12 12 12 11 12 12 13 12 13 11 10 11 11 11 11 11 12 12 13 13 13 12 12 12 14 14 14 13 11 11 13 15 20 20 21 21 21 21 22 23 18 16 16 16 21 30 31 30 28 27 27 26 22 23 26 25 26 27 26 16 16
13 13 13 11 11 12 13 13 12 12 13 11 8 9 11 9 8 9 10 11 11 12 13 13 12 12 12 12 13 13 13 14 14 12 11 10 11 11 11 11 10 10 11 13 14 13 13 13 14 14 16 14 13 12 12 13 12 14 15 17 21 24 26 26 24 21 25 28 28 29 32 31 28 24 18 15 14 16 21 24 25 25 17 15 15
13 12 12 12 12 12 13 14 13 12 13 12 13 10 8 8 9 9 9 9 10 11 12 12 14 13 13 13 14 13 13 13 13 13 12 11 11 10 11 11 10 11 13 13 15 13 14 13 15 15 14 15 16 13 12 11 10 10 11 15 17 17 21 21 16 14 17 18 22 24 24 29 28 33 30 25 22 22 20 17 14 14 14 14 15
12 12 12 11 12 12 12 12 13 14 14 13 12 12 12 10 9 9 9 10 11 11 12 12 14 12 12 13 12 15 16 14 14 13 13 13 11 10 10 11 12 12 13 15 15 14 14 14 14 15 16 17 15 12 10 10 11 14 16 16 16 14 13 14 17 18 17 18 20 24 27 22 20 19 19 16 15 14 14 13 13 13 13 13 17
12 13 12 12 11 11 12 11 12 12 13 13 14 14 14 13 8 9 9 10 11 11 12 12 13 13 13 12 12 13 14 13 13 13 12 12 12 13 13 13 9 8 11 15 16 17 14 12 11 14 17 17 16 15 11 15 20 24 22 19 16 18 19 19 20 25 22 19 17 19 18 20 19 19 18 18 17 16 16 15 15 14 12 12 12
10 11 13 13 13 12 11 11 11 13 12 13 13 14 14 13 8 9 10 11 12 12 12 12 12 12 13 13 14 14 12 12 13 14 14 14 13 15 16 14 16 19 20 23 21 18 19 19 17 15 11 15 17 21 34 41 36 32 31 33 33 35 33 29 28 32 24 18 18 17 18 18 18 18 18 17 18 17 16 16 15 15 14 12 12
10 11 13 13 12 11 12 13 14 14 13 12 13 13 13 10 8 10 11 12 13 12 12 12 13 12 15 16 14 12 11 12 12 12 14 15 16 15 16 22 19 20 24 29 30 31 31 27 20 20 22 30 34 36 37 36 37 36 37 36 38 36 37 36 36 26 20 17 17 17 16 17 17 17 17 16 17 17 17 16 16 15 14 14 14
Wind_Direction
137 101 128 163 178 152 159 147 165 206 216 238 249 244 243 240 248 259 249 247 233 253 271 255 301 333 334 293 267 308 321 302 288 252 201 181 129 282 299 301 331 325 339 355 353 353 345 337 347 344 342 351 14 29 43 47 28 84 151 111 107 102 84 93 116 125 144 47 156 156 191 223 134 267 262 253 221 196 192 209 178 197 223 163 199
139 206 225 197 181 180 155 167 193 238 257 231 223 230 227 230 227 250 277 281 262 232 243 299 277 236 246 280 314 306 315 318 303 326 277 171 197 233 280 295 319 307 329 344 347 359 354 346 340 346 344 341 338 355 2 14 1 10 17 55 89 126 128 118 146 88 97 205 137 255 272 239 206 216 221 226 206 202 190 193 178 199 201 169 135
275 265 218 182 182 181 174 186 197 207 230 246 240 210 229 231 236 244 245 249 258 237 222 252 274 288 243 271 335 303 278 267 255 240 256 271 239 214 235 271 283 305 321 337 322 344 13 357 340 334 349 341 344 347 357 5 357 359 0 22 352 337 122 164 117 120 167 294 238 120 257 106 294 304 256 228 205 213 199 201 192 191 194 172 179
268 260 279 215 168 182 185 191 205 200 211 238 252 239 223 223 222 225 226 221 230 249 223 222 243 276 336 297 282 248 261 289 302 293 267 263 275 244 230 237 243 268 291 317 330 337 360 349 353 345 339 345 335 341 349 6 356 350 357 352 17 2 349 358 155 130 123 76 27 126 233 168 328 293 218 247 188 204 191 210 193 195 186 183 178
257 289 294 283 263 210 195 201 192 186 198 221 230 219 190 199 216 220 223 219 227 228 224 199 230 299 275 280 275 310 318 299 307 301 249 220 233 210 227 217 231 246 271 284 275 303 316 336 352 339 330 330 338 345 355 355 339 355 352 356 350 13 342 348 320 83 99 131 144 59 335 69 194 241 158 271 192 214 237 225 217 199 189 191 198
226 252 261 271 285 328 342 290 184 203 214 229 215 202 189 214 212 202 203 208 211 227 219 182 195 216 270 289 292 256 276 264 252 243 207 217 226 210 188 184 197 219 240 265 283 294 306 308 324 321 323 331 348 345 325 2 359 14 350 341 340 344 348 333 318 324 190 172 182 181 172 177 187 262 60 269 283 223 218 212 218 209 205 197 201
222 228 247 264 261 243 250 237 232 221 237 194 168 195 217 228 227 218 211 212 205 197 183 166 206 228 228 231 235 251 261 272 259 293 254 252 234 183 202 188 195 193 221 224 237 247 263 289 291 291 293 301 301 344 324 359 336 42 360 351 329 332 347 335 318 292 326 318 237 264 205 246 145 75 255 349 321 308 218 203 232 221 212 216 215
179 202 215 217 216 208 232 244 230 226 221 163 195 208 219 231 223 221 221 219 216 196 188 184 195 208 222 232 236 247 247 258 271 270 269 251 259 260 253 243 200 194 201 212 218 225 235 267 263 268 278 273 281 272 269 353 20 339 278 265 300 288 295 292 295 317 288 277 215 223 244 261 247 239 199 178 182 245 295 287 264 228 217 222 221
177 196 215 221 229 229 222 238 233 223 221 218 219 217 218 222 226 230 231 226 228 209 202 200 198 206 216 223 246 237 231 244 251 259 264 260 260 277 260 255 228 204 200 202 208 211 213 223 240 244 262 276 274 271 264 165 202 245 306 324 295 306 326 305 336 285 314 269 252 284 241 254 250 230 222 159 215 244 275 230 262 299 252 256 243
199 210 216 226 226 236 233 239 260 250 241 230 223 206 216 223 229 230 239 227 224 219 208 213 206 209 222 235 236 253 254 267 262 257 253 256 246 257 252 251 245 217 211 206 204 204 209 211 223 223 231 251 265 261 260 208 237 240 239 239 254 283 285 284 257 262 297 305 313 267 260 266 254 288 250 225 258 226 244 276 232 205 263 266 239
197 210 230 232 233 229 233 243 248 263 250 214 219 215 215 215 222 230 237 229 217 213 204 213 209 206 219 224 228 242 248 243 258 270 264 261 242 247 242 241 236 230 199 210 205 206 206 207 215 219 217 227 236 250 249 227 232 235 237 235 242 236 243 252 279 282 272 291 298 297 260 235 214 207 230 224 210 239 270 276 279 253 243 277 266
203 198 226 239 272 271 250 248 252 253 250 227 227 222 220 224 220 238 255 236 226 217 206 213 204 215 218 219 228 232 230 233 236 243 240 240 237 241 243 248 254 243 207 192 209 206 204 212 211 215 218 220 228 226 230 220 229 225 225 222 232 236 235 242 249 256 258 240 251 257 260 263 274 262 250 228 204 235 215 258 270 300 307 256 279
359 325 280 274 262 267 270 268 271 263 242 224 217 213 218 219 219 233 258 244 230 220 213 212 208 216 215 221 228 230 230 229 231 235 235 235 236 239 238 236 243 251 243 223 209 198 201 205 208 213 221 219 221 219 224 224 223 218 218 224 224 227 226 222 231 235 230 232 233 240 233 238 244 253 258 279 285 263 262 280 270 271 260 288 289
293 275 268 264 268 274 269 272 271 273 270 252 236 216 215 225 233 232 259 251 241 229 218 212 216 218 215 217 222 221 227 224 229 230 235 229 227 230 226 224 226 223 231 226 217 198 199 204 202 210 213 215 214 216 216 221 219 216 217 223 227 232 229 225 228 233 235 237 225 240 253 242 243 234 236 241 247 259 268 247 271 291 269 273 280
253 254 256 261 267 264 267 268 275 280 283 285 277 249 228 243 248 252 266 266 245 240 230 222 226 223 221 220 222 219 223 224 227 223 228 230 232 228 228 223 218 226 221 228 225 192 196 203 207 207 211 213 213 213 216 215 214 216 221 225 230 221 224 227 236 232 238 244 245 231 240 248 246 242 226 233 214 212 205 215 214 273 299 271 271
305 302 305 293 281 290 293 287 277 273 267 263 258 253 248 250 250 248 250 259 253 249 239 229 232 227 224 223 226 223 226 228 235 231 229 222 229 224 233 228 227 227 230 224 226 205 195 201 206 211 210 212 213 213 213 211 212 214 222 224 233 220 223 223 226 223 233 232 235 239 236 242 237 237 231 230 223 220 215 210 203 206 239 279 275
359 342 303 296 308 309 297 294 294 292 290 277 268 257 251 267 275 278 273 272 263 252 250 243 241 232 235 228 228 227 225 227 230 233 232 231 227 231 232 235 237 233 235 224 229 221 210 205 208 214 216 216 217 218 216 216 212 217 221 222 229 223 223 225 221 219 224 221 225 226 226 235 235 233 236 229 227 223 219 215 203 214 198 234 274
358 335 318 301 299 302 304 297 288 285 284 291 288 284 282 283 281 284 287 281 277 272 267 254 247 243 242 237 233 226 227 233 234 238 239 238 241 239 240 245 238 236 231 235 227 227 226 217 218 223 222 218 219 220 218 219 215 221 223 225 226 217 225 229 225 221 224 216 221 224 224 233 229 223 228 227 224 220 220 217 217 213 192 217 228
344 326 321 324 321 317 317 314 311 309 304 301 303 307 308 299 284 271 275 272 273 276 276 279 266 255 243 241 236 238 236 237 238 240 239 237 240 236 232 234 243 239 236 237 230 230 226 228 223 230 227 228 225 222 217 220 215 225 227 232 228 219 224 230 228 218 226 217 224 227 224 231 223 224 225 226 225 220 221 217 222 210 215 215 220
318 316 315 316 313 311 313 315 316 315 312 304 300 305 305 294 292 286 281 283 288 284 278 272 268 266 269 266 258 245 243 237 236 234 238 236 239 235 237 241 236 235 235 231 230 226 226 229 228 228 232 232 232 229 220 220 217 223 225 230 232 222 228 232 235 223 224 219 225 230 227 228 223 219 224 224 225 222 216 218 216 213 221 214 207
299 299 307 307 308 309 308 304 298 299 300 299 294 288 284 294 292 285 284 293 293 288 287 277 277 271 267 263 261 256 252 247 247 234 236 241 242 237 237 237 244 240 231 235 231 230 227 226 227 226 228 230 229 232 224 223 223 228 227 228 231 225 230 237 233 236 228 226 227 232 233 230 219 219 224 223 224 223 220 222 216 216 223 214 208
287 294 295 301 304 306 308 311 306 308 303 306 301 310 314 304 287 286 289 288 291 296 289 288 287 280 275 275 271 262 255 249 243 241 240 244 243 240 239 242 237 245 227 236 234 233 231 229 229 232 230 230 229 229 225 218 225 230 234 227 231 228 233 238 231 238 233 231 230 233 237 232 221 226 225 225 221 222 220 221 222 215 223 222 209
286 295 296 291 288 285 288 295 301 306 303 307 314 316 298 294 299 293 288 290 284 282 289 289 292 297 291 287 286 281 274 266 256 253 249 250 252 254 248 242 247 251 243 236 241 238 236 231 234 236 235 236 233 233 228 222 226 227 231 232 227 228 232 236 235 236 235 232 235 235 238 231 224 228 230 230 225 226 221 222 226 218 224 224 217
293 297 294 289 292 294 305 309 312 318 327 330 327 320 311 305 298 304 307 299 306 301 298 304 302 298 294 296 292 286 285 281 275 271 266 263 260 257 245 242 247 249 250 246 240 245 240 236 237 240 236 238 239 239 237 230 230 228 230 234 230 227 230 234 237 240 237 231 233 237 239 231 226 229 231 229 228 227 226 226 227 225 222 226 222
318 310 295 306 318 317 301 292 302 315 328 335 335 326 321 316 313 314 312 307 307 306 315 309 306 304 303 300 295 293 289 286 280 280 277 278 275 269 261 251 253 255 252 253 253 241 243 239 240 241 242 240 240 240 241 240 236 233 233 235 234 231 231 233 235 237 237 233 235 236 240 232 227 232 235 231 226 225 226 226 229 227 224 224 224
284 295 316 312 293 292 314 328 335 338 339 336 329 320 313 316 319 314 322 327 323 329 322 317 311 309 306 305 302 301 297 292 291 290 285 283 282 277 271 265 251 257 260 252 250 249 239 243 243 246 246 246 245 242 242 243 241 239 237 238 239 237 237 237 237 237 235 233 235 237 239 234 230 229 235 234 229 228 225 226 229 229 225 223 225
279 274 277 291 319 312 314 327 329 336 342 343 337 330 329 343 354 356 347 343 327 338 338 333 317 307 304 305 306 303 299 298 297 292 294 298 295 289 283 277 270 261 263 264 257 254 249 244 248 248 247 247 248 246 246 244 243 240 239 240 241 241 241 240 241 241 238 236 236 238 238 233 233 232 235 234 232 229 227 227 226 227 222 222 224
308 313 304 301 307 332 344 340 351 357 4 5 356 346 346 2 355 348 349 352 348 354 340 327 319 315 313 310 307 301 301 298 298 298 297 295 294 293 286 281 282 278 271 265 264 261 260 252 253 252 252 250 250 252 251 248 245 244 243 242 241 243 244 243 244 243 241 241 239 239 238 235 233 233 233 235 230 233 226 233 229 224 219 219 223
333 308 313 352 356 346 351 3 7 12 11 2 355 352 353 351 345 342 351 346 349 343 327 320 320 321 318 315 313 311 306 306 305 304 303 299 296 293 291 288 284 277 271 265 265 266 270 267 264 260 261 255 253 253 252 251 249 249 245 246 244 243 243 247 246 246 244 244 244 241 240 238 234 235 232 232 230 225 226 233 231 219 220 217 221
299 296 320 355 359 9 14 20 16 10 2 359 359 355 348 341 338 345 349 339 350 334 326 324 324 321 319 319 317 315 314 314 316 310 305 304 303 301 298 296 290 281 277 275 275 271 266 266 269 268 263 261 259 258 257 253 249 250 251 249 249 246 246 247 250 251 251 247 246 244 243 238 238 237 236 236 235 232 230 229 232 217 219 217 219
293 311 330 3 16 26 31 29 13 1 353 358 352 342 339 337 341 346 342 335 343 331 328 327 325 323 323 321 323 318 320 320 315 314 311 312 309 308 307 302 298 293 288 286 281 280 277 272 269 268 270 267 265 265 264 263 261 255 254 258 255 257 252 252 251 252 254 255 254 249 249 245 242 242 241 239 237 237 236 235 235 230 221 215 219
292 314 360 27 34 34 29 10 356 353 3 356 348 342 344 343 341 340 337 337 340 333 331 330 325 327 330 330 327 324 324 320 322 319 317 313 313 313 312 307 305 303 299 297 295 285 284 283 279 275 271 272 272 271 270 271 269 267 261 259 259 259 257 257 257 256 256 255 257 257 253 250 244 241 242 242 242 241 241 240 239 237 234 227 222
307 18 41 45 41 27 13 358 356 2 359 345 350 352 347 344 342 336 342 339 336 334 333 332 330 334 336 336 338 339 334 332 331 328 325 326 324 321 318 318 313 306 305 306 300 299 294 290 284 282 279 276 277 277 279 278 276 273 270 265 263 256 257 256 256 257 257 257 257 258 260 253 251 246 242 242 244 245 242 242 244 242 239 235 233
55 60 58 46 35 9 2 358 2 356 345 348 352 351 343 345 345 343 343 340 339 336 337 335 341 344 346 346 345 341 337 333 332 331 331 330 329 326 323 319 315 315 314 310 307 303 300 296 291 286 284 282 279 285 284 283 282 279 275 271 265 262 259 258 256 255 257 257 256 259 262 259 254 251 247 244 244 244 245 242 241 238 239 239 237
36 37 28 33 30 11 12 4 1 356 347 356 350 357 1 356 351 348 345 344 342 338 346 353 353 351 351 349 347 342 338 336 335 334 332 329 328 327 328 328 326 323 322 320 319 317 310 305 301 295 292 290 288 290 290 289 289 285 281 275 270 267 265 263 260 258 259 260 262 261 261 263 263 257 254 247 248 248 247 248 245 241 236 237 234
64 65 30 34 25 23 12 4 352 353 346 5 4 4 8 350 346 354 352 347 354 2 4 3 357 355 352 347 345 342 340 338 335 336 335 332 332 331 328 327 325 319 313 309 306 305 303 305 303 303 301 295 293 292 293 294 294 293 290 284 276 270 269 267 265 263 261 261 261 259 261 264 264 264 261 256 255 258 258 255 252 250 246 240 237
51 64 51 39 28 16 2 7 352 357 16 13 8 10 1 354 3 0 357 5 15 15 10 4 358 351 346 344 343 340 338 337 337 337 336 333 332 331 328 328 322 319 317 316 311 308 307 305 306 305 302 298 297 297 297 296 296 295 296 289 283 278 272 270 270 267 265 263 260 257 258 263 264 263 262 260 260 257 259 260 258 258 256 252 249
44 38 41 27 16 16 5 19 17 22 19 8 11 8 4 15 11 5 19 24 22 14 4 356 349 344 341 340 339 338 336 335 336 335 333 330 329 327 327 327 325 322 321 318 315 313 311 308 305 303 300 299 299 298 297 296 295 293 290 289 286 284 280 278 277 272 267 266 260 255 254 258 263 265 265 260 260 257 258 261 261 262 264 261 259
48 45 32 24 19 14 17 23 27 21 7 11 15 12 24 20 16 28 27 22 15 5 357 350 343 338 335 335 333 333 332 332 331 331 330 330 330 328 322 322 321 319 315 315 314 313 313 311 309 303 302 298 297 300 299 297 298 299 299 294 290 286 287 284 282 283 275 262 268 259 254 254 258 265 266 261 259 255 256 260 260 262 261 262 259
44 34 27 20 13 27 25 29 25 12 2 15 14 23 29 28 33 30 25 17 8 360 351 344 338 335 334 332 331 329 329 329 328 327 331 329 324 322 324 322 319 317 314 314 312 311 309 308 308 306 306 305 304 303 303 302 303 304 305 304 299 297 295 294 291 288 292 287 271 271 266 259 261 264 265 263 259 252 252 257 258 256 258 260 266
46 30 20 17 21 31 29 24 16 6 16 17 18 33 36 33 31 27 20 12 2 354 349 343 337 334 332 331 330 328 327 326 328 330 326 323 323 324 322 322 319 316 314 313 313 311 308 307 308 307 304 305 304 304 306 304 303 303 303 304 302 298 296 295 297 295 290 292 293 283 277 272 269 269 270 269 265 259 251 252 254 254 253 262 270
45 33 26 21 28 30 27 16 7 14 22 20 32 42 35 33 32 25 13 4 357 353 345 341 337 334 332 331 331 329 327 328 333 330 327 326 329 328 325 323 319 319 320 318 318 315 314 313 313 312 310 307 307 304 304 307 306 306 305 303 300 294 292 295 297 295 293 290 286 289 288 280 278 277 277 274 271 268 264 259 256 256 260 262 263
30 23 18 23 27 29 23 11 6 22 24 28 46 42 36 31 31 17 3 1 354 349 343 341 338 336 337 337 337 335 331 334 331 327 324 329 334 332 329 329 328 329 327 325 324 323 320 318 316 315 317 316 315 314 310 311 313 314 311 308 303 300 298 297 292 292 294 294 291 289 287 285 281 278 277 276 274 269 266 261 262 263 263 262 263
37 28 18 20 24 21 19 7 10 26 23 39 47 41 34 33 22 9 1 360 355 351 347 345 342 339 338 341 340 336 334 333 330 325 327 334 336 334 332 333 334 330 328 324 324 322 318 316 317 316 317 317 316 312 311 311 310 309 308 305 303 304 304 302 297 294 296 296 299 295 292 291 290 287 283 279 277 273 266 263 262 262 263 265 263
34 25 17 20 18 12 14 9 10 27 20 41 44 38 27 24 11 5 4 360 353 350 350 346 343 339 339 339 337 337 336 333 330 326 328 332 329 331 328 330 329 325 323 321 318 318 315 316 317 315 314 313 312 311 308 309 308 306 304 304 304 305 308 309 305 298 294 295 293 294 294 292 290 287 284 281 278 272 268 264 262 261 261 259 257
37 29 19 20 17 16 15 10 8 24 21 19 29 27 23 8 4 6 1 360 353 353 352 346 342 338 339 338 338 337 337 334 331 329 325 324 324 324 324 324 324 321 321 318 319 317 317 317 314 313 311 310 311 307 303 302 301 300 300 306 311 310 305 299 295 292 291 292 293 294 294 294 293 290 287 282 277 274 268 263 259 255 253 249 246
35 29 23 20 19 19 17 12 8 18 17 6 7 4 9 1 3 1 0 358 355 353 349 345 345 341 340 340 339 336 333 331 330 326 322 320 322 322 321 320 321 322 321 318 314 313 312 312 311 309 308 309 306 306 305 303 305 310 314 312 308 302 297 295 296 300 301 299 297 296 294 292 291 290 288 282 277 275 274 269 262 253 248 244 243
30 21 22 21 19 15 12 11 10 9 6 360 358 356 352 353 355 1 359 359 355 354 348 344 341 339 337 335 334 330 331 329 327 325 322 318 316 317 316 316 323 327 324 316 311 308 310 309 310 310 308 305 299 297 303 312 317 314 308 307 302 302 312 314 306 301 296 297 295 292 291 290 291 290 288 289 284 278 269 267 263 258 251 244 242
30 18 17 18 11 10 6 8 9 6 2 355 354 351 347 343 1 4 1 359 352 348 346 344 341 339 335 334 330 330 328 324 321 321 318 319 320 319 317 309 305 314 313 310 312 308 305 304 303 305 305 302 307 307 308 312 306 305 303 305 310 311 305 299 289 289 295 293 291 290 286 287 285 285 285 281 280 279 278 273 268 264 258 252 246
32 26 18 16 8 5 5 3 6 1 358 350 352 346 344 344 15 4 3 359 351 346 344 345 341 337 331 331 331 328 325 323 324 323 323 316 308 306 307 306 308 308 302 301 305 305 304 306 304 296 300 310 314 311 310 310 308 305 306 306 303 301 298 295 294 295 295 294 291 285 282 282 280 280 280 279 279 276 276 276 273 269 265 259 253
27 27 18 13 1 359 9 9 5 354 352 345 346 340 338 353 19 4 4 359 354 349 345 342 340 336 333 329 327 322 322 321 321 322 317 315 312 306 297 298 293 293 303 308 307 303 301 304 315 318 313 307 305 305 306 307 311 315 313 310 306 301 299 298 298 298 292 283 281 276 275 276 275 272 272 273 274 276 274 275 274 274 269 263 259